QPF
0.00 0.00 0.00 0.00 0.01 0.01 0.01 0.00 0.00 0.01 0.01 0.00 0.00 0.00 0.00 0.00 0.02 0.02 0.00 0.00 0.00 0.00 0.00 0.00 0.01 0.01 0.00 0.01 0.01 0.01 0.01 0.01 0.01 0.01 0.01 0.01 0.01 0.01 0.00 0.00 0.00 0.00 0.00 0.00 0.00 0.00 0.00 0.00 0.00
0.00 0.00 0.00 0.00 0.01 0.01 0.00 0.00 0.00 0.01 0.01 0.01 0.00 0.00 0.00 0.00 0.00 0.00 0.00 0.00 0.00 0.00 0.00 0.00 0.00 0.01 0.00 0.00 0.01 0.01 0.01 0.01 0.01 0.01 0.01 0.01 0.01 0.01 0.00 0.00 0.00 0.00 0.01 0.00 0.00 0.00 0.00 0.00 0.00
0.00 0.00 0.00 0.00 0.00 0.00 0.00 0.00 0.01 0.01 0.01 0.01 0.00 0.00 0.00 0.00 0.00 0.00 0.00 0.00 0.00 0.00 0.00 0.00 0.01 0.01 0.01 0.01 0.01 0.01 0.01 0.01 0.01 0.01 0.00 0.01 0.01 0.00 0.01 0.01 0.01 0.01 0.01 0.01 0.01 0.00 0.00 0.00 0.00
0.00 0.00 0.00 0.00 0.00 0.00 0.00 0.00 0.00 0.01 0.01 0.01 0.00 0.00 0.00 0.00 0.00 0.00 0.00 0.00 0.00 0.00 0.00 0.00 0.01 0.02 0.02 0.02 0.02 0.02 0.02 0.02 0.01 0.01 0.01 0.01 0.01 0.01 0.01 0.01 0.01 0.01 0.02 0.02 0.01 0.01 0.01 0.01 0.01
0.00 0.00 0.00 0.00 0.00 0.00 0.00 0.00 0.00 0.01 0.01 0.00 0.00 0.00 0.00 0.00 0.00 0.00 0.00 0.00 0.00 0.00 0.00 0.01 0.01 0.02 0.02 0.02 0.03 0.03 0.03 0.03 0.03 0.02 0.02 0.01 0.01 0.01 0.01 0.01 0.01 0.02 0.02 0.03 0.03 0.03 0.02 0.02 0.01
0.00 0.00 0.00 0.00 0.00 0.00 0.00 0.00 0.00 0.01 0.01 0.01 0.00 0.00 0.00 0.01 0.01 0.00 0.00 0.00 0.00 0.00 0.00 0.01 0.01 0.02 0.02 0.03 0.03 0.03 0.04 0.04 0.04 0.04 0.04 0.03 0.03 0.03 0.03 0.03 0.02 0.02 0.02 0.04 0.05 0.05 0.04 0.03 0.03
0.00 0.00 0.00 0.00 0.00 0.00 0.00 0.00 0.01 0.01 0.00 0.01 0.01 0.00 0.00 0.00 0.01 0.00 0.00 0.00 0.00 0.00 0.01 0.01 0.01 0.02 0.02 0.03 0.05 0.06 0.06 0.06 0.06 0.05 0.05 0.05 0.05 0.04 0.05 0.05 0.04 0.04 0.04 0.04 0.06 0.07 0.08 0.07 0.05
0.00 0.00 0.00 0.00 0.00 0.00 0.00 0.01 0.01 0.01 0.01 0.01 0.00 0.00 0.00 0.00 0.01 0.01 0.01 0.00 0.00 0.00 0.01 0.01 0.01 0.03 0.03 0.03 0.03 0.05 0.06 0.06 0.06 0.05 0.05 0.05 0.05 0.06 0.07 0.07 0.06 0.06 0.06 0.07 0.07 0.07 0.09 0.12 0.10
0.00 0.00 0.00 0.00 0.00 0.00 0.00 0.01 0.01 0.01 0.01 0.00 0.00 0.00 0.00 0.00 0.00 0.01 0.01 0.00 0.01 0.01 0.01 0.01 0.01 0.02 0.02 0.02 0.03 0.05 0.05 0.06 0.05 0.06 0.06 0.07 0.08 0.10 0.09 0.09 0.08 0.07 0.07 0.09 0.10 0.09 0.11 0.13 0.13
0.00 0.00 0.00 0.00 0.00 0.00 0.00 0.00 0.01 0.01 0.01 0.00 0.01 0.01 0.00 0.00 0.00 0.01 0.01 0.01 0.01 0.01 0.01 0.01 0.01 0.02 0.03 0.03 0.05 0.07 0.07 0.09 0.10 0.12 0.13 0.15 0.18 0.15 0.11 0.11 0.09 0.08 0.09 0.11 0.12 0.12 0.13 0.12 0.13
0.00 0.00 0.00 0.00 0.00 0.00 0.00 0.00 0.00 0.00 0.00 0.01 0.01 0.01 0.01 0.00 0.01 0.02 0.02 0.02 0.02 0.03 0.03 0.03 0.03 0.04 0.05 0.06 0.07 0.10 0.13 0.16 0.15 0.18 0.21 0.23 0.25 0.23 0.21 0.23 0.20 0.16 0.14 0.14 0.14 0.15 0.13 0.13 0.14
0.00 0.00 0.00 0.00 0.00 0.00 0.00 0.00 0.00 0.01 0.01 0.01 0.01 0.01 0.01 0.01 0.02 0.04 0.03 0.04 0.05 0.06 0.07 0.08 0.07 0.06 0.08 0.10 0.12 0.12 0.14 0.13 0.11 0.12 0.14 0.18 0.18 0.18 0.18 0.19 0.18 0.17 0.15 0.16 0.16 0.17 0.17 0.16 0.14
0.00 0.00 0.00 0.00 0.00 0.00 0.01 0.01 0.01 0.01 0.02 0.01 0.01 0.01 0.01 0.03 0.04 0.05 0.06 0.07 0.08 0.08 0.09 0.10 0.11 0.12 0.13 0.13 0.13 0.11 0.12 0.11 0.09 0.10 0.10 0.09 0.11 0.11 0.11 0.10 0.10 0.09 0.09 0.08 0.09 0.12 0.14 0.13 0.13
0.00 0.00 0.00 0.00 0.00 0.01 0.01 0.01 0.01 0.01 0.01 0.01 0.01 0.01 0.02 0.03 0.04 0.05 0.06 0.08 0.08 0.08 0.08 0.08 0.09 0.10 0.10 0.10 0.09 0.08 0.09 0.09 0.07 0.05 0.03 0.04 0.05 0.06 0.06 0.05 0.05 0.05 0.04 0.04 0.05 0.06 0.09 0.11 0.13
0.00 0.00 0.00 0.01 0.01 0.01 0.01 0.01 0.01 0.01 0.01 0.01 0.02 0.02 0.02 0.03 0.04 0.04 0.05 0.05 0.06 0.07 0.07 0.06 0.06 0.05 0.05 0.04 0.04 0.04 0.06 0.06 0.05 0.03 0.02 0.01 0.02 0.02 0.02 0.02 0.02 0.02 0.01 0.02 0.02 0.03 0.04 0.05 0.06
0.00 0.00 0.00 0.00 0.01 0.01 0.01 0.02 0.01 0.01 0.01 0.01 0.02 0.03 0.03 0.03 0.04 0.05 0.05 0.06 0.06 0.06 0.04 0.03 0.02 0.02 0.02 0.02 0.02 0.02 0.02 0.02 0.01 0.00 0.00 0.00 0.00 0.01 0.01 0.01 0.01 0.01 0.01 0.01 0.01 0.01 0.02 0.03 0.04
0.00 0.00 0.00 0.00 0.01 0.01 0.01 0.02 0.01 0.01 0.01 0.03 0.04 0.04 0.03 0.03 0.03 0.04 0.04 0.04 0.04 0.04 0.03 0.01 0.01 0.01 0.01 0.01 0.01 0.00 0.00 0.00 0.00 0.00 0.00 0.00 0.00 0.00 0.00 0.00 0.00 0.00 0.00 0.00 0.00 0.01 0.01 0.02 0.03
0.00 0.00 0.00 0.00 0.00 0.00 0.01 0.02 0.02 0.02 0.03 0.04 0.04 0.05 0.04 0.04 0.04 0.03 0.02 0.03 0.02 0.02 0.01 0.01 0.01 0.00 0.01 0.01 0.00 0.00 0.00 0.00 0.00 0.00 0.00 0.00 0.00 0.00 0.00 0.00 0.00 0.00 0.00 0.00 0.00 0.00 0.01 0.01 0.02
0.00 0.00 0.00 0.01 0.00 0.01 0.02 0.04 0.03 0.03 0.04 0.04 0.05 0.05 0.06 0.05 0.05 0.03 0.01 0.01 0.01 0.01 0.01 0.00 0.00 0.00 0.00 0.00 0.00 0.00 0.00 0.00 0.00 0.00 0.00 0.00 0.00 0.00 0.00 0.00 0.00 0.00 0.00 0.00 0.00 0.00 0.00 0.00 0.01
0.00 0.01 0.01 0.00 0.00 0.01 0.02 0.05 0.04 0.05 0.05 0.06 0.07 0.08 0.06 0.07 0.08 0.04 0.01 0.00 0.00 0.00 0.00 0.00 0.00 0.00 0.00 0.00 0.00 0.00 0.00 0.00 0.00 0.00 0.00 0.00 0.00 0.00 0.00 0.00 0.00 0.00 0.00 0.01 0.01 0.00 0.00 0.00 0.00
0.00 0.01 0.01 0.00 0.00 0.01 0.03 0.06 0.07 0.07 0.07 0.05 0.04 0.05 0.07 0.06 0.05 0.03 0.01 0.00 0.00 0.00 0.00 0.00 0.01 0.01 0.01 0.01 0.00 0.00 0.00 0.00 0.00 0.00 0.00 0.00 0.00 0.00 0.00 0.00 0.00 0.00 0.00 0.00 0.01 0.01 0.01 0.01 0.01
0.00 0.00 0.00 0.00 0.00 0.01 0.02 0.06 0.05 0.06 0.06 0.05 0.05 0.05 0.04 0.02 0.01 0.01 0.00 0.00 0.00 0.00 0.00 0.01 0.01 0.01 0.01 0.00 0.00 0.00 0.00 0.00 0.00 0.00 0.00 0.00 0.00 0.00 0.00 0.00 0.00 0.00 0.00 0.00 0.01 0.00 0.00 0.00 0.00
0.00 0.00 0.00 0.00 0.01 0.01 0.01 0.02 0.02 0.02 0.04 0.04 0.04 0.04 0.02 0.01 0.00 0.00 0.00 0.00 0.00 0.00 0.00 0.00 0.00 0.01 0.01 0.00 0.00 0.00 0.00 0.00 0.00 0.00 0.00 0.00 0.00 0.00 0.00 0.00 0.00 0.00 0.00 0.00 0.00 0.01 0.01 0.01 0.01
0.00 0.00 0.00 0.00 0.00 0.01 0.01 0.01 0.01 0.01 0.01 0.01 0.01 0.01 0.01 0.00 0.00 0.00 0.00 0.00 0.00 0.00 0.00 0.00 0.00 0.01 0.00 0.00 0.00 0.00 0.00 0.00 0.00 0.00 0.00 0.00 0.00 0.00 0.00 0.00 0.00 0.00 0.00 0.00 0.00 0.00 0.00 0.00 0.01
0.00 0.00 0.00 0.00 0.01 0.01 0.00 0.00 0.00 0.00 0.00 0.00 0.00 0.00 0.00 0.00 0.00 0.00 0.00 0.00 0.00 0.00 0.00 0.00 0.00 0.00 0.00 0.00 0.00 0.00 0.00 0.00 0.00 0.00 0.00 0.00 0.00 0.00 0.00 0.00 0.00 0.00 0.00 0.00 0.00 0.00 0.00 0.00 0.00
0.00 0.00 0.01 0.01 0.01 0.00 0.00 0.00 0.00 0.00 0.00 0.00 0.00 0.00 0.00 0.00 0.00 0.00 0.00 0.00 0.00 0.00 0.00 0.00 0.00 0.00 0.00 0.00 0.00 0.00 0.00 0.00 0.00 0.00 0.00 0.00 0.00 0.00 0.00 0.00 0.00 0.00 0.00 0.00 0.00 0.00 0.00 0.00 0.00
0.00 0.00 0.00 0.00 0.00 0.00 0.00 0.00 0.00 0.00 0.00 0.00 0.00 0.00 0.00 0.00 0.00 0.00 0.00 0.00 0.00 0.00 0.00 0.00 0.00 0.00 0.00 0.00 0.00 0.00 0.00 0.00 0.00 0.00 0.00 0.00 0.00 0.00 0.00 0.00 0.00 0.00 0.00 0.00 0.00 0.00 0.00 0.00 0.00
0.00 0.00 0.00 0.00 0.00 0.00 0.00 0.00 0.00 0.00 0.00 0.00 0.00 0.00 0.00 0.00 0.00 0.00 0.00 0.00 0.00 0.00 0.00 0.00 0.00 0.00 0.00 0.00 0.00 0.00 0.00 0.00 0.00 0.00 0.00 0.00 0.00 0.00 0.00 0.00 0.00 0.00 0.00 0.00 0.00 0.00 0.00 0.00 0.00
0.00 0.00 0.00 0.00 0.00 0.00 0.00 0.00 0.00 0.00 0.00 0.00 0.00 0.00 0.00 0.00 0.00 0.00 0.00 0.00 0.00 0.00 0.00 0.00 0.00 0.00 0.00 0.00 0.00 0.00 0.00 0.00 0.00 0.00 0.00 0.00 0.00 0.00 0.00 0.00 0.00 0.00 0.00 0.00 0.00 0.00 0.00 0.00 0.00
0.00 0.00 0.00 0.00 0.00 0.00 0.00 0.00 0.00 0.00 0.00 0.00 0.00 0.00 0.00 0.00 0.00 0.00 0.00 0.00 0.00 0.00 0.00 0.00 0.00 0.00 0.00 0.00 0.00 0.00 0.00 0.00 0.00 0.00 0.00 0.00 0.00 0.00 0.00 0.00 0.00 0.00 0.00 0.00 0.00 0.00 0.00 0.00 0.00
MSLP
1012.22 1012.77 1013.30 1013.71 1013.91 1013.84 1013.50 1012.94 1012.26 1011.57 1010.99 1010.62 1010.47 1010.55 1010.79 1011.12 1011.46 1011.74 1011.96 1012.12 1012.28 1012.46 1012.73 1013.09 1013.53 1014.00 1014.44 1014.81 1015.06 1015.20 1015.24 1015.25 1015.27 1015.35 1015.53 1015.79 1016.10 1016.42 1016.69 1016.88 1016.99 1017.01 1016.99 1016.98 1016.99 1017.07 1017.19 1017.35 1017.49
1012.39 1012.95 1013.46 1013.80 1013.90 1013.70 1013.23 1012.56 1011.80 1011.09 1010.54 1010.23 1010.19 1010.38 1010.73 1011.15 1011.54 1011.85 1012.06 1012.19 1012.30 1012.45 1012.70 1013.07 1013.55 1014.09 1014.61 1015.06 1015.39 1015.59 1015.68 1015.70 1015.72 1015.79 1015.94 1016.16 1016.43 1016.69 1016.91 1017.05 1017.11 1017.11 1017.08 1017.06 1017.10 1017.20 1017.36 1017.55 1017.71
1012.61 1013.15 1013.59 1013.82 1013.79 1013.46 1012.89 1012.15 1011.38 1010.70 1010.24 1010.05 1010.14 1010.46 1010.91 1011.39 1011.80 1012.09 1012.24 1012.30 1012.34 1012.45 1012.67 1013.05 1013.56 1014.15 1014.75 1015.27 1015.67 1015.93 1016.06 1016.11 1016.15 1016.21 1016.34 1016.52 1016.75 1016.97 1017.14 1017.24 1017.26 1017.23 1017.19 1017.17 1017.22 1017.34 1017.53 1017.73 1017.91
1012.86 1013.33 1013.66 1013.76 1013.58 1013.14 1012.50 1011.74 1011.01 1010.43 1010.11 1010.07 1010.31 1010.75 1011.28 1011.79 1012.18 1012.41 1012.49 1012.46 1012.43 1012.48 1012.67 1013.04 1013.58 1014.21 1014.85 1015.43 1015.88 1016.18 1016.35 1016.42 1016.47 1016.54 1016.66 1016.83 1017.04 1017.23 1017.37 1017.44 1017.43 1017.38 1017.33 1017.31 1017.36 1017.49 1017.67 1017.88 1018.05
1013.09 1013.46 1013.66 1013.61 1013.31 1012.78 1012.09 1011.37 1010.72 1010.28 1010.11 1010.24 1010.62 1011.16 1011.75 1012.26 1012.61 1012.77 1012.77 1012.66 1012.56 1012.56 1012.73 1013.09 1013.63 1014.27 1014.93 1015.53 1015.99 1016.31 1016.49 1016.58 1016.64 1016.72 1016.86 1017.04 1017.24 1017.43 1017.56 1017.61 1017.59 1017.53 1017.46 1017.44 1017.48 1017.60 1017.77 1017.96 1018.11
1013.30 1013.55 1013.61 1013.43 1013.02 1012.42 1011.73 1011.07 1010.53 1010.24 1010.23 1010.51 1011.00 1011.62 1012.23 1012.72 1013.03 1013.12 1013.04 1012.88 1012.74 1012.71 1012.86 1013.21 1013.73 1014.36 1014.99 1015.56 1016.00 1016.30 1016.47 1016.57 1016.65 1016.76 1016.92 1017.12 1017.34 1017.54 1017.67 1017.72 1017.70 1017.62 1017.55 1017.51 1017.54 1017.63 1017.78 1017.95 1018.07
1013.47 1013.60 1013.53 1013.23 1012.74 1012.12 1011.46 1010.87 1010.46 1010.30 1010.43 1010.82 1011.39 1012.04 1012.64 1013.11 1013.36 1013.41 1013.30 1013.12 1012.96 1012.93 1013.08 1013.41 1013.90 1014.48 1015.05 1015.55 1015.93 1016.18 1016.33 1016.42 1016.51 1016.65 1016.84 1017.08 1017.32 1017.54 1017.68 1017.73 1017.69 1017.61 1017.52 1017.47 1017.48 1017.55 1017.68 1017.81 1017.92
1013.61 1013.63 1013.45 1013.07 1012.53 1011.91 1011.30 1010.80 1010.49 1010.45 1010.68 1011.14 1011.74 1012.38 1012.96 1013.39 1013.61 1013.64 1013.53 1013.37 1013.24 1013.23 1013.38 1013.70 1014.14 1014.64 1015.12 1015.53 1015.82 1016.01 1016.11 1016.19 1016.30 1016.46 1016.68 1016.95 1017.21 1017.43 1017.57 1017.61 1017.57 1017.47 1017.37 1017.30 1017.29 1017.35 1017.45 1017.56 1017.65
1013.70 1013.63 1013.37 1012.94 1012.40 1011.81 1011.26 1010.85 1010.64 1010.68 1010.97 1011.44 1012.04 1012.65 1013.18 1013.57 1013.78 1013.82 1013.75 1013.63 1013.56 1013.59 1013.76 1014.05 1014.44 1014.85 1015.23 1015.52 1015.72 1015.83 1015.90 1015.97 1016.08 1016.26 1016.51 1016.78 1017.05 1017.26 1017.38 1017.39 1017.32 1017.21 1017.09 1017.01 1016.99 1017.04 1017.13 1017.22 1017.30
1013.72 1013.59 1013.29 1012.86 1012.34 1011.81 1011.35 1011.02 1010.89 1010.98 1011.28 1011.74 1012.29 1012.85 1013.33 1013.69 1013.89 1013.97 1013.95 1013.91 1013.92 1014.00 1014.19 1014.46 1014.78 1015.10 1015.37 1015.56 1015.67 1015.72 1015.75 1015.81 1015.94 1016.13 1016.38 1016.65 1016.89 1017.07 1017.14 1017.11 1017.01 1016.87 1016.73 1016.65 1016.63 1016.67 1016.76 1016.85 1016.91
1013.67 1013.50 1013.20 1012.80 1012.35 1011.91 1011.54 1011.30 1011.23 1011.35 1011.64 1012.05 1012.53 1013.02 1013.45 1013.77 1013.99 1014.11 1014.16 1014.21 1014.29 1014.42 1014.63 1014.88 1015.14 1015.37 1015.55 1015.65 1015.69 1015.70 1015.72 1015.78 1015.91 1016.11 1016.35 1016.59 1016.79 1016.91 1016.92 1016.83 1016.68 1016.51 1016.36 1016.28 1016.26 1016.31 1016.40 1016.49 1016.54
1013.54 1013.38 1013.11 1012.77 1012.42 1012.08 1011.82 1011.66 1011.65 1011.78 1012.04 1012.39 1012.80 1013.21 1013.58 1013.88 1014.10 1014.26 1014.39 1014.51 1014.65 1014.83 1015.04 1015.27 1015.48 1015.64 1015.75 1015.80 1015.80 1015.80 1015.82 1015.89 1016.03 1016.23 1016.44 1016.64 1016.77 1016.82 1016.75 1016.60 1016.40 1016.20 1016.05 1015.96 1015.96 1016.02 1016.11 1016.19 1016.23
1013.37 1013.23 1013.02 1012.77 1012.52 1012.31 1012.16 1012.09 1012.13 1012.27 1012.50 1012.79 1013.13 1013.46 1013.77 1014.04 1014.27 1014.45 1014.63 1014.80 1014.99 1015.19 1015.40 1015.60 1015.77 1015.89 1015.96 1015.98 1015.98 1015.99 1016.03 1016.12 1016.27 1016.46 1016.64 1016.78 1016.84 1016.81 1016.67 1016.46 1016.22 1015.99 1015.83 1015.75 1015.76 1015.83 1015.92 1015.99 1016.01
1013.18 1013.08 1012.95 1012.80 1012.68 1012.59 1012.55 1012.58 1012.67 1012.82 1013.02 1013.27 1013.53 1013.79 1014.05 1014.28 1014.49 1014.69 1014.87 1015.07 1015.27 1015.47 1015.68 1015.86 1016.00 1016.10 1016.16 1016.19 1016.21 1016.25 1016.32 1016.44 1016.59 1016.76 1016.90 1016.98 1016.97 1016.86 1016.66 1016.40 1016.13 1015.90 1015.74 1015.67 1015.68 1015.75 1015.84 1015.88 1015.86
1013.04 1012.99 1012.93 1012.89 1012.88 1012.91 1012.99 1013.10 1013.24 1013.41 1013.60 1013.80 1014.01 1014.21 1014.40 1014.59 1014.77 1014.94 1015.12 1015.30 1015.49 1015.68 1015.87 1016.03 1016.17 1016.27 1016.35 1016.41 1016.47 1016.55 1016.65 1016.78 1016.93 1017.06 1017.16 1017.18 1017.10 1016.93 1016.69 1016.41 1016.12 1015.89 1015.74 1015.68 1015.69 1015.75 1015.81 1015.83 1015.76
1012.97 1012.95 1012.96 1013.02 1013.13 1013.27 1013.45 1013.64 1013.83 1014.02 1014.20 1014.37 1014.53 1014.68 1014.82 1014.95 1015.08 1015.22 1015.36 1015.50 1015.66 1015.82 1015.98 1016.13 1016.28 1016.40 1016.51 1016.61 1016.72 1016.84 1016.96 1017.10 1017.23 1017.32 1017.36 1017.33 1017.20 1017.00 1016.74 1016.45 1016.17 1015.95 1015.81 1015.75 1015.75 1015.79 1015.82 1015.79 1015.67
1012.96 1012.99 1013.07 1013.21 1013.41 1013.65 1013.91 1014.17 1014.41 1014.61 1014.79 1014.93 1015.05 1015.15 1015.24 1015.32 1015.40 1015.48 1015.56 1015.66 1015.78 1015.90 1016.04 1016.19 1016.34 1016.50 1016.66 1016.81 1016.95 1017.10 1017.24 1017.36 1017.45 1017.50 1017.49 1017.41 1017.25 1017.03 1016.77 1016.50 1016.24 1016.04 1015.91 1015.84 1015.82 1015.82 1015.80 1015.73 1015.57
1013.00 1013.06 1013.21 1013.43 1013.71 1014.03 1014.36 1014.66 1014.93 1015.14 1015.30 1015.42 1015.50 1015.56 1015.60 1015.63 1015.66 1015.68 1015.72 1015.77 1015.84 1015.93 1016.06 1016.21 1016.39 1016.58 1016.78 1016.98 1017.16 1017.32 1017.45 1017.55 1017.60 1017.60 1017.54 1017.42 1017.25 1017.03 1016.79 1016.55 1016.32 1016.14 1016.01 1015.93 1015.87 1015.83 1015.75 1015.63 1015.44
1013.04 1013.16 1013.37 1013.66 1014.01 1014.39 1014.76 1015.08 1015.35 1015.55 1015.68 1015.77 1015.81 1015.83 1015.83 1015.82 1015.81 1015.79 1015.79 1015.80 1015.84 1015.92 1016.04 1016.21 1016.41 1016.65 1016.89 1017.12 1017.33 1017.49 1017.61 1017.67 1017.67 1017.62 1017.52 1017.38 1017.21 1017.01 1016.80 1016.60 1016.41 1016.25 1016.11 1016.00 1015.90 1015.80 1015.67 1015.51 1015.29
1013.04 1013.23 1013.51 1013.88 1014.29 1014.70 1015.09 1015.41 1015.65 1015.80 1015.89 1015.92 1015.92 1015.90 1015.87 1015.84 1015.80 1015.77 1015.74 1015.73 1015.76 1015.84 1015.97 1016.16 1016.40 1016.67 1016.95 1017.21 1017.44 1017.60 1017.70 1017.72 1017.68 1017.60 1017.47 1017.32 1017.16 1016.99 1016.82 1016.66 1016.51 1016.36 1016.21 1016.06 1015.91 1015.75 1015.58 1015.38 1015.15
1012.99 1013.27 1013.64 1014.07 1014.53 1014.96 1015.33 1015.61 1015.79 1015.87 1015.88 1015.85 1015.79 1015.73 1015.68 1015.63 1015.59 1015.56 1015.54 1015.55 1015.59 1015.68 1015.83 1016.05 1016.32 1016.63 1016.94 1017.23 1017.47 1017.63 1017.71 1017.72 1017.65 1017.54 1017.40 1017.26 1017.12 1016.99 1016.87 1016.74 1016.62 1016.47 1016.31 1016.13 1015.93 1015.71 1015.49 1015.27 1015.04
1012.90 1013.27 1013.73 1014.24 1014.73 1015.16 1015.49 1015.69 1015.78 1015.75 1015.66 1015.53 1015.41 1015.31 1015.23 1015.19 1015.17 1015.17 1015.19 1015.23 1015.30 1015.43 1015.61 1015.86 1016.16 1016.50 1016.84 1017.15 1017.40 1017.57 1017.65 1017.64 1017.57 1017.46 1017.33 1017.20 1017.09 1017.00 1016.91 1016.82 1016.72 1016.57 1016.39 1016.18 1015.94 1015.68 1015.43 1015.19 1014.97
1012.80 1013.28 1013.82 1014.39 1014.90 1015.31 1015.57 1015.67 1015.63 1015.47 1015.25 1015.02 1014.82 1014.67 1014.58 1014.56 1014.58 1014.63 1014.70 1014.80 1014.92 1015.09 1015.31 1015.59 1015.91 1016.27 1016.63 1016.96 1017.22 1017.40 1017.49 1017.50 1017.44 1017.34 1017.22 1017.12 1017.04 1016.98 1016.93 1016.87 1016.77 1016.63 1016.44 1016.21 1015.94 1015.66 1015.39 1015.15 1014.95
1012.74 1013.30 1013.92 1014.53 1015.05 1015.41 1015.58 1015.56 1015.38 1015.07 1014.71 1014.37 1014.08 1013.89 1013.80 1013.80 1013.87 1013.99 1014.13 1014.30 1014.48 1014.70 1014.95 1015.25 1015.59 1015.96 1016.33 1016.66 1016.94 1017.14 1017.24 1017.27 1017.23 1017.15 1017.06 1016.99 1016.93 1016.90 1016.87 1016.82 1016.74 1016.60 1016.41 1016.17 1015.89 1015.61 1015.34 1015.11 1014.93
1012.73 1013.36 1014.04 1014.66 1015.16 1015.45 1015.53 1015.38 1015.04 1014.59 1014.10 1013.65 1013.29 1013.06 1012.97 1013.00 1013.14 1013.33 1013.55 1013.79 1014.03 1014.29 1014.57 1014.89 1015.23 1015.59 1015.96 1016.29 1016.57 1016.78 1016.91 1016.95 1016.93 1016.88 1016.81 1016.76 1016.72 1016.69 1016.67 1016.64 1016.56 1016.44 1016.25 1016.02 1015.76 1015.49 1015.24 1015.03 1014.87
1012.78 1013.45 1014.14 1014.75 1015.20 1015.42 1015.39 1015.12 1014.66 1014.08 1013.47 1012.93 1012.52 1012.27 1012.20 1012.28 1012.47 1012.74 1013.04 1013.34 1013.64 1013.93 1014.23 1014.54 1014.88 1015.22 1015.57 1015.89 1016.16 1016.37 1016.50 1016.56 1016.56 1016.52 1016.46 1016.41 1016.37 1016.35 1016.33 1016.30 1016.23 1016.12 1015.95 1015.75 1015.51 1015.27 1015.06 1014.87 1014.74
1012.86 1013.53 1014.19 1014.76 1015.14 1015.29 1015.16 1014.79 1014.22 1013.55 1012.88 1012.29 1011.85 1011.61 1011.56 1011.68 1011.94 1012.28 1012.64 1013.00 1013.35 1013.66 1013.97 1014.27 1014.57 1014.89 1015.20 1015.49 1015.74 1015.93 1016.06 1016.11 1016.11 1016.07 1016.01 1015.95 1015.90 1015.87 1015.84 1015.80 1015.74 1015.65 1015.51 1015.34 1015.15 1014.95 1014.76 1014.61 1014.48
1012.92 1013.54 1014.14 1014.64 1014.94 1015.00 1014.80 1014.36 1013.74 1013.03 1012.33 1011.74 1011.32 1011.10 1011.09 1011.27 1011.58 1011.98 1012.40 1012.80 1013.17 1013.50 1013.79 1014.07 1014.34 1014.60 1014.87 1015.12 1015.33 1015.50 1015.60 1015.64 1015.62 1015.57 1015.49 1015.41 1015.34 1015.28 1015.24 1015.20 1015.15 1015.08 1014.97 1014.84 1014.68 1014.52 1014.37 1014.23 1014.12
1012.90 1013.44 1013.94 1014.34 1014.56 1014.55 1014.30 1013.83 1013.21 1012.51 1011.85 1011.30 1010.92 1010.76 1010.80 1011.03 1011.39 1011.82 1012.27 1012.70 1013.08 1013.40 1013.68 1013.93 1014.15 1014.38 1014.59 1014.79 1014.96 1015.08 1015.15 1015.16 1015.12 1015.04 1014.94 1014.83 1014.74 1014.66 1014.61 1014.57 1014.52 1014.47 1014.39 1014.29 1014.17 1014.03 1013.89 1013.76 1013.64
1012.79 1013.20 1013.59 1013.88 1014.01 1013.93 1013.66 1013.20 1012.62 1011.99 1011.41 1010.94 1010.64 1010.54 1010.64 1010.91 1011.30 1011.75 1012.21 1012.64 1013.01 1013.33 1013.58 1013.80 1013.99 1014.16 1014.33 1014.48 1014.60 1014.69 1014.72 1014.70 1014.63 1014.53 1014.40 1014.27 1014.16 1014.07 1014.01 1013.97 1013.93 1013.89 1013.83 1013.75 1013.65 1013.52 1013.38 1013.23 1013.09
Thickness
5821 5824 5825 5817 5807 5808 5811 5820 5827 5830 5833 5840 5842 5837 5830 5820 5812 5800 5819 5828 5823 5818 5809 5799 5796 5793 5791 5789 5787 5785 5783 5780 5778 5775 5772 5770 5768 5766 5764 5762 5760 5759 5757 5756 5755 5754 5753 5753 5752
5827 5826 5819 5813 5807 5809 5811 5823 5826 5830 5836 5841 5839 5834 5826 5815 5816 5812 5818 5821 5819 5815 5807 5801 5793 5790 5788 5786 5783 5782 5779 5777 5774 5772 5769 5767 5765 5763 5761 5759 5758 5757 5755 5754 5753 5752 5751 5750 5750
5827 5825 5815 5812 5811 5809 5811 5825 5828 5835 5841 5838 5831 5831 5822 5810 5813 5814 5818 5819 5818 5812 5806 5797 5791 5787 5785 5782 5780 5778 5776 5773 5771 5768 5766 5764 5762 5760 5758 5757 5756 5754 5753 5752 5751 5750 5749 5748 5747
5822 5815 5813 5809 5811 5817 5818 5827 5833 5833 5836 5838 5832 5820 5815 5809 5815 5817 5817 5817 5814 5808 5803 5793 5787 5784 5781 5779 5776 5774 5772 5770 5768 5766 5763 5761 5759 5757 5756 5755 5753 5752 5751 5750 5749 5748 5747 5746 5745
5821 5813 5806 5807 5811 5818 5827 5832 5835 5831 5829 5831 5830 5814 5803 5804 5814 5815 5814 5814 5810 5807 5802 5791 5783 5780 5777 5775 5773 5771 5769 5767 5765 5763 5761 5759 5757 5755 5754 5752 5751 5750 5749 5748 5747 5746 5745 5743 5742
5810 5809 5801 5804 5807 5815 5826 5834 5834 5828 5824 5825 5823 5811 5797 5801 5804 5807 5810 5810 5809 5804 5799 5788 5780 5777 5774 5771 5769 5768 5766 5764 5762 5760 5758 5757 5755 5753 5752 5750 5749 5748 5747 5746 5745 5743 5742 5741 5740
5804 5801 5800 5801 5801 5805 5816 5831 5828 5824 5817 5818 5821 5807 5798 5798 5800 5803 5804 5805 5804 5801 5796 5788 5783 5775 5771 5768 5766 5764 5763 5761 5759 5757 5755 5754 5752 5751 5749 5748 5747 5746 5745 5744 5743 5742 5740 5739 5737
5805 5798 5795 5797 5794 5799 5816 5823 5824 5823 5814 5821 5821 5806 5797 5796 5799 5798 5797 5797 5796 5794 5791 5784 5782 5776 5772 5768 5762 5760 5758 5756 5754 5753 5751 5750 5749 5748 5747 5746 5744 5743 5742 5741 5740 5740 5738 5737 5735
5794 5784 5788 5793 5790 5797 5813 5812 5814 5821 5815 5813 5814 5813 5809 5801 5797 5792 5789 5787 5784 5782 5781 5780 5778 5772 5769 5767 5762 5758 5755 5753 5751 5750 5748 5747 5748 5749 5747 5745 5743 5741 5740 5739 5738 5738 5737 5735 5734
5782 5776 5787 5794 5796 5799 5804 5805 5807 5808 5804 5799 5797 5799 5800 5796 5793 5788 5785 5780 5777 5774 5773 5771 5770 5766 5765 5763 5759 5756 5755 5751 5749 5747 5745 5744 5744 5743 5743 5741 5739 5738 5737 5737 5736 5735 5735 5734 5735
5776 5775 5785 5790 5796 5799 5798 5800 5806 5803 5794 5795 5790 5788 5792 5790 5788 5786 5781 5778 5775 5770 5767 5764 5762 5760 5758 5755 5754 5751 5749 5745 5744 5741 5740 5739 5738 5738 5738 5737 5737 5736 5736 5736 5735 5735 5735 5735 5734
5769 5775 5778 5783 5791 5792 5793 5796 5796 5797 5792 5796 5794 5790 5786 5783 5782 5778 5775 5772 5768 5763 5760 5759 5755 5753 5750 5749 5747 5745 5744 5742 5740 5737 5736 5735 5735 5734 5733 5732 5733 5733 5733 5732 5731 5731 5732 5731 5731
5764 5769 5775 5782 5786 5790 5789 5788 5784 5780 5786 5788 5786 5782 5779 5777 5774 5772 5768 5764 5760 5755 5753 5751 5748 5746 5743 5741 5740 5740 5738 5738 5736 5732 5731 5730 5731 5731 5730 5728 5727 5728 5728 5728 5728 5728 5727 5727 5728
5769 5770 5771 5776 5779 5780 5779 5778 5777 5768 5776 5776 5774 5772 5771 5768 5766 5762 5759 5755 5752 5749 5747 5746 5743 5741 5738 5736 5734 5734 5734 5731 5731 5728 5726 5724 5725 5724 5724 5723 5722 5723 5722 5722 5721 5723 5723 5724 5725
5771 5764 5766 5769 5772 5774 5776 5765 5764 5764 5768 5764 5762 5761 5760 5759 5758 5754 5752 5750 5748 5744 5742 5740 5739 5737 5734 5733 5731 5730 5728 5727 5725 5722 5720 5718 5718 5717 5716 5718 5718 5717 5716 5715 5716 5717 5718 5719 5721
5767 5762 5759 5763 5768 5769 5767 5756 5755 5761 5760 5755 5754 5752 5751 5750 5751 5750 5748 5746 5743 5739 5737 5737 5738 5733 5729 5727 5725 5725 5723 5720 5718 5716 5714 5711 5710 5709 5709 5712 5713 5709 5709 5710 5710 5711 5713 5713 5714
5761 5759 5760 5757 5764 5765 5763 5756 5752 5757 5755 5750 5748 5747 5745 5742 5743 5743 5743 5741 5738 5735 5733 5731 5730 5727 5725 5722 5719 5718 5715 5713 5712 5710 5707 5704 5703 5702 5703 5704 5704 5702 5704 5705 5704 5706 5705 5706 5707
5757 5760 5756 5753 5757 5760 5756 5752 5749 5752 5749 5746 5743 5741 5738 5737 5738 5739 5738 5738 5735 5732 5730 5728 5725 5722 5720 5718 5715 5713 5711 5709 5706 5703 5699 5697 5697 5695 5695 5698 5696 5696 5698 5697 5696 5694 5695 5697 5700
5765 5759 5753 5748 5754 5753 5750 5746 5745 5745 5743 5740 5737 5735 5734 5734 5737 5736 5735 5734 5732 5729 5726 5724 5722 5718 5715 5714 5712 5709 5707 5704 5702 5699 5693 5691 5689 5688 5687 5689 5688 5688 5690 5689 5689 5689 5691 5692 5695
5763 5755 5750 5746 5750 5748 5744 5741 5741 5739 5737 5737 5734 5731 5731 5732 5731 5730 5731 5731 5730 5727 5725 5722 5718 5716 5712 5710 5706 5703 5700 5699 5696 5692 5687 5684 5683 5681 5683 5680 5682 5683 5681 5681 5681 5681 5682 5686 5689
5762 5758 5753 5745 5743 5745 5739 5729 5730 5733 5734 5733 5733 5733 5733 5730 5729 5728 5728 5729 5729 5727 5724 5723 5718 5714 5710 5706 5704 5700 5696 5694 5693 5689 5686 5681 5677 5676 5674 5673 5674 5674 5676 5678 5675 5674 5675 5677 5681
5758 5764 5758 5748 5741 5738 5735 5720 5726 5730 5728 5728 5730 5730 5730 5731 5731 5731 5731 5730 5730 5729 5727 5722 5717 5712 5708 5703 5701 5697 5692 5689 5686 5683 5682 5677 5674 5672 5670 5669 5668 5667 5670 5669 5669 5673 5669 5668 5672
5761 5766 5760 5753 5747 5741 5739 5732 5731 5733 5726 5729 5733 5734 5736 5737 5737 5735 5735 5734 5733 5732 5728 5723 5717 5711 5706 5702 5697 5692 5690 5688 5686 5681 5677 5674 5674 5670 5668 5665 5664 5662 5664 5663 5661 5661 5661 5663 5664
5765 5760 5755 5755 5756 5736 5735 5733 5730 5738 5737 5738 5740 5740 5741 5742 5741 5739 5739 5737 5734 5732 5728 5723 5716 5710 5705 5700 5696 5690 5686 5682 5679 5675 5674 5673 5673 5670 5667 5663 5660 5659 5659 5657 5655 5654 5655 5654 5654
5763 5754 5745 5741 5740 5735 5738 5736 5737 5748 5751 5749 5746 5745 5746 5745 5743 5741 5738 5736 5733 5730 5727 5723 5715 5709 5704 5699 5694 5690 5685 5680 5676 5673 5673 5669 5669 5668 5664 5661 5656 5655 5653 5650 5649 5648 5647 5647 5645
5764 5760 5740 5727 5733 5741 5738 5736 5747 5756 5757 5756 5755 5753 5750 5748 5747 5744 5742 5739 5734 5731 5726 5721 5714 5708 5703 5698 5693 5688 5683 5681 5679 5674 5669 5667 5665 5663 5659 5655 5652 5650 5647 5646 5644 5643 5642 5640 5638
5762 5763 5766 5751 5745 5739 5741 5744 5753 5756 5754 5754 5754 5752 5750 5750 5749 5746 5743 5739 5735 5730 5725 5720 5713 5707 5702 5698 5692 5686 5682 5678 5675 5670 5667 5666 5662 5659 5656 5651 5648 5645 5642 5639 5636 5637 5634 5633 5631
5773 5767 5758 5750 5730 5730 5736 5739 5744 5748 5751 5754 5753 5753 5753 5752 5750 5747 5744 5739 5735 5730 5724 5718 5712 5706 5701 5696 5690 5687 5681 5676 5671 5668 5664 5660 5657 5653 5650 5647 5644 5641 5638 5634 5631 5629 5628 5624 5622
5759 5757 5756 5755 5746 5732 5730 5741 5762 5759 5760 5758 5758 5758 5757 5754 5752 5747 5742 5738 5733 5728 5722 5715 5710 5704 5698 5693 5688 5682 5678 5674 5670 5665 5661 5657 5653 5649 5646 5642 5639 5636 5632 5629 5625 5623 5620 5617 5615
5771 5764 5757 5743 5738 5740 5738 5747 5772 5769 5769 5766 5764 5763 5761 5756 5752 5747 5741 5735 5730 5726 5721 5714 5708 5703 5697 5692 5685 5680 5675 5671 5666 5663 5659 5654 5649 5645 5642 5638 5634 5630 5627 5623 5619 5615 5613 5610 5607